Tracking 28790 objects as of 18-Apr-2024
HD Live streaming from Space Station
objects crossing your sky now

COSMOS 1275 DEB

Track COSMOS 1275 DEB now!
10-day predictions


NORAD ID: 13479
Int'l Code: 1981-053GB
Perigee: 522.3 km
Apogee: 534.6 km
Inclination: 82.9 °
Period: 95.1 minutes
Semi major axis: 6899 km
RCS: 0.052 m2 (small)
Launch date: June 4, 1981
Source: Commonwealth of Independent States (former USSR) (CIS)
Launch site: PLESETSK MISSILE AND SPACE COMPLEX (PKMTR)

Note: This is SATELLITE DEBRIS
Your satellite tracking list
Your tracking list is empty




NASA's NSSDC Master Catalog

Two Line Element Set (TLE):
1 13479U 81053FZ  24109.13894873  .00173430  00000-0  91030-2 0  9993
2 13479  82.8711 263.0508 0008938 104.4398 255.7827 15.14894851197182
Source of the keplerian elements: AFSPC